Time,TemperatureF,DewpointF,PressureIn,WindDirection,WindDirectionDegrees,WindSpeedMPH,WindSpeedGustMPH,Humidity,HourlyPrecipIn,Conditions,Clouds,dailyrainin,SoftwareType,DateUTC
2013-03-15 00:09:00,20.8,6.4,29.79,West,270,8.3,-999.0,53,-99.99,,,0.00,Acu-Link.com,2013-03-15 04:09:00,
2013-03-15 00:24:00,20.7,6.3,29.79,WNW,292,5.3,-999.0,53,-99.99,,,0.00,Acu-Link.com,2013-03-15 04:24:00,
2013-03-15 00:39:00,20.5,6.5,29.79,NW,315,5.8,-999.0,54,-99.99,,,0.00,Acu-Link.com,2013-03-15 04:39:00,
2013-03-15 00:54:00,20.3,5.9,29.79,NW,315,4.7,-999.0,53,-99.99,,,0.00,Acu-Link.com,2013-03-15 04:54:00,
2013-03-15 01:09:00,20.7,6.3,29.80,NW,315,8.3,-999.0,53,-99.99,,,0.00,Acu-Link.com,2013-03-15 05:09:00,
2013-03-15 01:25:00,20.3,6.3,29.79,NW,315,6.3,-999.0,54,-99.99,,,0.00,Acu-Link.com,2013-03-15 05:25:00,
2013-03-15 01:40:00,19.2,4.9,29.80,West,270,7.3,-999.0,53,-99.99,,,0.00,Acu-Link.com,2013-03-15 05:40:00,
2013-03-15 01:55:00,20.1,6.2,29.80,NNE,22,9.9,-999.0,54,-99.99,,,0.00,Acu-Link.com,2013-03-15 05:55:00,
2013-03-15 02:10:00,20.1,6.2,29.81,WNW,292,8.9,-999.0,54,-99.99,,,0.00,Acu-Link.com,2013-03-15 06:10:00,
2013-03-15 02:25:00,19.9,6.0,29.81,NW,315,7.8,-999.0,54,-99.99,,,0.00,Acu-Link.com,2013-03-15 06:25:00,
2013-03-15 02:40:00,19.9,6.0,29.80,NW,315,7.3,-999.0,54,-99.99,,,0.00,Acu-Link.com,2013-03-15 06:40:00,
2013-03-15 02:56:00,19.6,5.7,29.81,WNW,292,5.3,-999.0,54,-99.99,,,0.00,Acu-Link.com,2013-03-15 06:56:00,
2013-03-15 03:11:00,19.6,5.3,29.80,West,270,5.8,-999.0,53,-99.99,,,0.00,Acu-Link.com,2013-03-15 07:11:00,
2013-03-15 03:26:00,19.4,5.5,29.80,WNW,292,4.7,-999.0,54,-99.99,,,0.00,Acu-Link.com,2013-03-15 07:26:00,
2013-03-15 03:56:00,19.0,3.5,29.80,WNW,292,5.3,-999.0,50,-99.99,,,0.00,Acu-Link.com,2013-03-15 07:56:00,
2013-03-15 04:26:00,20.1,3.6,29.79,WNW,292,9.4,-999.0,48,-99.99,,,0.00,Acu-Link.com,2013-03-15 08:26:00,
2013-03-15 04:42:00,18.3,1.5,29.80,WNW,292,8.3,-999.0,47,-99.99,,,0.00,Acu-Link.com,2013-03-15 08:42:00,
2013-03-15 04:57:00,18.1,1.8,29.80,WNW,292,7.3,-999.0,48,-99.99,,,0.00,Acu-Link.com,2013-03-15 08:57:00,
2013-03-15 05:12:00,18.1,2.2,29.81,NW,315,4.7,-999.0,49,-99.99,,,0.00,Acu-Link.com,2013-03-15 09:12:00,
2013-03-15 05:27:00,18.5,2.6,29.81,WNW,292,5.3,-999.0,49,-99.99,,,0.00,Acu-Link.com,2013-03-15 09:27:00,
2013-03-15 05:42:00,17.8,2.3,29.81,West,270,2.2,-999.0,50,-99.99,,,0.00,Acu-Link.com,2013-03-15 09:42:00,
2013-03-15 05:57:00,17.4,2.8,29.82,WNW,292,3.7,-999.0,52,-99.99,,,0.00,Acu-Link.com,2013-03-15 09:57:00,
2013-03-15 06:13:00,17.4,2.4,29.82,NW,315,4.2,-999.0,51,-99.99,,,0.00,Acu-Link.com,2013-03-15 10:13:00,
2013-03-15 06:28:00,17.4,2.8,29.82,NW,315,4.7,-999.0,52,-99.99,,,0.00,Acu-Link.com,2013-03-15 10:28:00,
2013-03-15 06:43:00,17.1,2.5,29.81,West,270,2.2,-999.0,52,-99.99,,,0.00,Acu-Link.com,2013-03-15 10:43:00,
2013-03-15 06:59:00,16.9,2.8,29.81,NNE,22,3.7,-999.0,53,-99.99,,,0.00,Acu-Link.com,2013-03-15 10:59:00,
2013-03-15 07:14:00,16.9,3.2,29.81,WNW,292,1.1,-999.0,54,-99.99,,,0.00,Acu-Link.com,2013-03-15 11:14:00,
2013-03-15 07:29:00,17.2,3.8,29.81,WNW,292,4.2,-999.0,55,-99.99,,,0.00,Acu-Link.com,2013-03-15 11:29:00,
2013-03-15 07:44:00,17.8,4.4,29.82,WNW,292,3.2,-999.0,55,-99.99,,,0.00,Acu-Link.com,2013-03-15 11:44:00,
2013-03-15 07:59:00,18.7,4.8,29.82,NNW,337,3.2,-999.0,54,-99.99,,,0.00,Acu-Link.com,2013-03-15 11:59:00,
2013-03-15 08:15:00,20.1,5.3,29.82,NW,315,5.8,-999.0,52,-99.99,,,0.00,Acu-Link.com,2013-03-15 12:15:00,
2013-03-15 08:30:00,21.2,6.4,29.81,NNW,337,5.8,-999.0,52,-99.99,,,0.00,Acu-Link.com,2013-03-15 12:30:00,
2013-03-15 08:45:00,20.5,5.7,29.81,NW,315,6.8,-999.0,52,-99.99,,,0.00,Acu-Link.com,2013-03-15 12:45:00,
2013-03-15 09:00:00,21.7,6.4,29.82,NW,315,6.3,-999.0,51,-99.99,,,0.00,Acu-Link.com,2013-03-15 13:00:00,
2013-03-15 09:15:00,22.6,6.4,29.81,WNW,292,6.3,-999.0,49,-99.99,,,0.00,Acu-Link.com,2013-03-15 13:15:00,
2013-03-15 09:30:00,22.1,5.9,29.82,NW,315,4.7,-999.0,49,-99.99,,,0.00,Acu-Link.com,2013-03-15 13:30:00,
2013-03-15 09:46:00,24.4,7.1,29.81,NW,315,5.3,-999.0,47,-99.99,,,0.00,Acu-Link.com,2013-03-15 13:46:00,
2013-03-15 10:01:00,24.4,6.6,29.82,NW,315,5.3,-999.0,46,-99.99,,,0.00,Acu-Link.com,2013-03-15 14:01:00,
2013-03-15 10:16:00,24.8,6.0,29.80,NW,315,4.7,-999.0,44,-99.99,,,0.00,Acu-Link.com,2013-03-15 14:16:00,
2013-03-15 10:46:00,26.6,6.1,29.78,NNW,337,2.2,-999.0,41,-99.99,,,0.00,Acu-Link.com,2013-03-15 14:46:00,
2013-03-15 11:01:00,27.5,6.9,29.79,NNW,337,2.7,-999.0,41,-99.99,,,0.00,Acu-Link.com,2013-03-15 15:01:00,
2013-03-15 11:32:00,30.0,6.9,29.77,West,270,2.7,-999.0,37,-99.99,,,0.00,Acu-Link.com,2013-03-15 15:32:00,
2013-03-15 11:47:00,31.1,6.0,29.75,South,180,4.2,-999.0,34,-99.99,,,0.00,Acu-Link.com,2013-03-15 15:47:00,
2013-03-15 12:02:00,31.6,4.5,29.75,WNW,292,2.2,-999.0,31,-99.99,,,0.00,Acu-Link.com,2013-03-15 16:02:00,
2013-03-15 12:17:00,31.8,5.3,29.74,WNW,292,3.7,-999.0,32,-99.99,,,0.00,Acu-Link.com,2013-03-15 16:17:00,
2013-03-15 12:33:00,34.7,5.0,29.72,West,270,2.7,-999.0,28,-99.99,,,0.00,Acu-Link.com,2013-03-15 16:33:00,
2013-03-15 12:48:00,36.0,3.6,29.72,West,270,3.2,-999.0,25,-99.99,,,0.00,Acu-Link.com,2013-03-15 16:48:00,
2013-03-15 13:03:00,36.3,3.9,29.71,SW,225,6.3,-999.0,25,-99.99,,,0.00,Acu-Link.com,2013-03-15 17:03:00,
2013-03-15 13:18:00,37.0,2.7,29.69,South,180,2.7,-999.0,23,-99.99,,,0.00,Acu-Link.com,2013-03-15 17:18:00,
2013-03-15 13:33:00,37.2,0.9,29.68,ENE,67,3.7,-999.0,21,-99.99,,,0.00,Acu-Link.com,2013-03-15 17:33:00,
2013-03-15 13:49:00,38.8,1.2,29.67,NW,315,2.2,-999.0,20,-99.99,,,0.00,Acu-Link.com,2013-03-15 17:49:00,
2013-03-15 14:04:00,39.9,2.1,29.65,NE,45,2.2,-999.0,20,-99.99,,,0.00,Acu-Link.com,2013-03-15 18:04:00,
2013-03-15 14:19:00,41.4,4.4,29.65,West,270,4.2,-999.0,21,-99.99,,,0.00,Acu-Link.com,2013-03-15 18:19:00,
2013-03-15 14:34:00,39.9,2.1,29.63,WNW,292,2.7,-999.0,20,-99.99,,,0.00,Acu-Link.com,2013-03-15 18:34:00,
2013-03-15 14:49:00,40.5,5.7,29.63,NW,315,3.7,-999.0,23,-99.99,,,0.00,Acu-Link.com,2013-03-15 18:49:00,
2013-03-15 15:04:00,40.1,4.3,29.62,WSW,247,7.3,-999.0,22,-99.99,,,0.00,Acu-Link.com,2013-03-15 19:04:00,
2013-03-15 15:20:00,40.1,10.4,29.62,WNW,292,3.7,-999.0,29,-99.99,,,0.00,Acu-Link.com,2013-03-15 19:20:00,
2013-03-15 15:35:00,39.6,12.9,29.61,West,270,3.7,-999.0,33,-99.99,,,0.00,Acu-Link.com,2013-03-15 19:35:00,
2013-03-15 15:50:00,39.2,13.2,29.61,ESE,112,5.8,-999.0,34,-99.99,,,0.00,Acu-Link.com,2013-03-15 19:50:00,
2013-03-15 16:05:00,39.4,16.5,29.60,West,270,3.7,-999.0,39,-99.99,,,0.00,Acu-Link.com,2013-03-15 20:05:00,
2013-03-15 16:21:00,39.4,17.7,29.60,NW,315,5.8,-999.0,41,-99.99,,,0.00,Acu-Link.com,2013-03-15 20:21:00,
2013-03-15 16:36:00,40.1,18.3,29.59,NE,45,1.7,-999.0,41,-99.99,,,0.00,Acu-Link.com,2013-03-15 20:36:00,
2013-03-15 16:51:00,39.6,17.9,29.59,NW,315,4.2,-999.0,41,-99.99,,,0.00,Acu-Link.com,2013-03-15 20:51:00,
2013-03-15 17:07:00,38.5,17.4,29.58,WSW,247,3.2,-999.0,42,-99.99,,,0.00,Acu-Link.com,2013-03-15 21:07:00,
2013-03-15 17:22:00,37.9,18.0,29.58,WNW,292,3.7,-999.0,44,-99.99,,,0.00,Acu-Link.com,2013-03-15 21:22:00,
2013-03-15 17:37:00,37.2,19.3,29.58,NW,315,3.2,-999.0,48,-99.99,,,0.00,Acu-Link.com,2013-03-15 21:37:00,
2013-03-15 17:52:00,36.5,20.6,29.58,SSW,202,2.7,-999.0,52,-99.99,,,0.00,Acu-Link.com,2013-03-15 21:52:00,
2013-03-15 18:07:00,36.1,22.4,29.58,North,0,3.7,-999.0,57,-99.99,,,0.00,Acu-Link.com,2013-03-15 22:07:00,
2013-03-15 18:23:00,36.0,22.7,29.59,NW,315,1.7,-999.0,58,-99.99,,,0.00,Acu-Link.com,2013-03-15 22:23:00,
2013-03-15 18:38:00,35.6,23.1,29.58,NE,45,3.7,-999.0,60,-99.99,,,0.00,Acu-Link.com,2013-03-15 22:38:00,
2013-03-15 18:53:00,35.2,23.5,29.59,West,270,2.2,-999.0,62,-99.99,,,0.00,Acu-Link.com,2013-03-15 22:53:00,
2013-03-15 19:08:00,34.9,24.3,29.58,NNW,337,4.7,-999.0,65,-99.99,,,0.00,Acu-Link.com,2013-03-15 23:08:00,
2013-03-15 19:24:00,34.7,24.9,29.59,WNW,292,3.7,-999.0,67,-99.99,,,0.00,Acu-Link.com,2013-03-15 23:24:00,
2013-03-15 19:39:00,34.2,24.8,29.60,West,270,2.2,-999.0,68,-99.99,,,0.00,Acu-Link.com,2013-03-15 23:39:00,
2013-03-15 19:54:00,33.8,24.7,29.60,South,180,0.0,-999.0,69,-99.99,,,0.00,Acu-Link.com,2013-03-15 23:54:00,
2013-03-15 20:10:00,33.3,24.6,29.60,South,180,0.0,-999.0,70,-99.99,,,0.00,Acu-Link.com,2013-03-16 00:10:00,
2013-03-15 20:25:00,32.9,24.5,29.60,West,270,1.1,-999.0,71,-99.99,,,0.00,Acu-Link.com,2013-03-16 00:25:00,
2013-03-15 20:40:00,32.4,24.4,29.60,West,270,2.7,-999.0,72,-99.99,,,0.00,Acu-Link.com,2013-03-16 00:40:00,
2013-03-15 20:55:00,32.4,24.7,29.59,West,270,3.2,-999.0,73,-99.99,,,0.00,Acu-Link.com,2013-03-16 00:55:00,
2013-03-15 21:10:00,32.5,25.2,29.59,SW,225,2.7,-999.0,74,-99.99,,,0.00,Acu-Link.com,2013-03-16 01:10:00,
2013-03-15 21:41:00,31.8,24.8,29.59,West,270,2.2,-999.0,75,-99.99,,,0.00,Acu-Link.com,2013-03-16 01:41:00,
2013-03-15 22:12:00,31.3,24.6,29.59,SW,225,1.1,-999.0,76,-99.99,,,0.00,Acu-Link.com,2013-03-16 02:12:00,
2013-03-15 22:27:00,30.7,24.4,29.59,West,270,1.7,-999.0,77,-99.99,,,0.00,Acu-Link.com,2013-03-16 02:27:00,
2013-03-15 22:42:00,30.7,24.4,29.60,NNW,337,1.1,-999.0,77,-99.99,,,0.00,Acu-Link.com,2013-03-16 02:42:00,
2013-03-15 22:58:00,30.2,23.9,29.60,SW,225,2.7,-999.0,77,-99.99,,,0.00,Acu-Link.com,2013-03-16 02:58:00,
2013-03-15 23:13:00,30.0,24.0,29.60,West,270,1.7,-999.0,78,-99.99,,,0.00,Acu-Link.com,2013-03-16 03:13:00,
2013-03-15 23:28:00,30.2,24.2,29.61,West,270,2.7,-999.0,78,-99.99,,,0.00,Acu-Link.com,2013-03-16 03:28:00,
2013-03-15 23:43:00,32.2,23.9,29.61,NW,315,6.8,-999.0,71,-99.99,,,0.00,Acu-Link.com,2013-03-16 03:43:00,
2013-03-15 23:58:00,32.7,23.7,29.62,NW,315,7.3,-999.0,69,-99.99,,,0.00,Acu-Link.com,2013-03-16 03:58:00,